Mojave, CA

9:33 PM PST on December 12, 2019 (GMT -0800)
Mojave

Weather History for KMHV - October, 2019

Change the Weather History Date:

Thursday, October 31, 2019

  Actual Average Record
Temperature  
Mean Temperature 42 °F -  
Max Temperature 59 °F 69 °F 85 °F (1966)
Min Temperature 24 °F 42 °F 26 °F (1971)
Degree Days  
Heating Degree Days 24    
Moisture  
Dew Point -16 °F    
Average Humidity 9    
Maximum Humidity 14    
Minimum Humidity 5    
Precipitation  
Precipitation 0.00 in - - ()
Sea Level Pressure  
Sea Level Pressure 30.28 in    
Wind  
Wind Speed 5 mph ()    
Max Wind Speed 10 mph    
Max Gust Speed 16 mph    
Visibility 9.8 miles    
Events      
Averages and records for this station are not official NWS values.
T = Trace of Precipitation, MM = Missing Value Source: Averaged Metar Reports

Daily Weather History Graph

Daily Weather History Graph

Search for Another Location

Airport or City:

Astronomy

Oct. 31, 2019 Rise Set
Actual Time 7:12 AM PDT 5:59 PM PDT
Civil Twilight 6:46 AM PDT 6:25 PM PDT
Nautical Twilight 6:16 AM PDT 6:55 PM PDT
Astronomical Twilight 5:47 AM PDT 7:24 PM PDT
Moon 10:59 AM PDT (10/31) 9:06 PM PDT (10/31)
Length of Visible Light 11h 38m
Length of Day
10h 46m
Waxing Crescent, 16% of the Moon is Illuminated
Oct 31
Waxing Crescent
Nov 4
First Quarter
Nov 12
Full
Nov 19
Last Quarter
Nov 26
New

Hourly Weather History & Observations

Time (PDT) Temp. Windchill Dew Point Humidity Pressure Visibility Wind Dir Wind Speed Gust Speed Precip Events Conditions
12:00 AM 30.2 °F 22.6 °F -16.6 °F 13% 30.35 in 10.0 mi North 8.1 mph - N/A   Scattered Clouds
12:20 AM 32.0 °F - -16.6 °F 12% 30.35 in 10.0 mi Calm Calm - N/A   Partly Cloudy
12:40 AM 30.2 °F 22.6 °F -16.6 °F 13% 30.35 in 10.0 mi North 8.1 mph - N/A   Clear
1:00 AM 30.2 °F 23.4 °F -16.6 °F 13% 30.34 in 10.0 mi North 6.9 mph - N/A   Clear
1:20 AM 30.2 °F - -16.6 °F 13% 30.35 in 10.0 mi Calm Calm - N/A   Partly Cloudy
1:40 AM 30.2 °F 25.4 °F -16.6 °F 13% 30.35 in 10.0 mi WSW 4.6 mph - N/A   Partly Cloudy
2:00 AM 28.4 °F 24.6 °F -16.6 °F 13% 30.35 in 10.0 mi WSW 3.5 mph - N/A   Partly Cloudy
2:20 AM 26.6 °F 21.2 °F -16.6 °F 14% 30.35 in 8.0 mi West 4.6 mph - N/A   Partly Cloudy
2:40 AM 28.4 °F 23.3 °F -16.6 °F 13% 30.35 in 10.0 mi WNW 4.6 mph - N/A   Partly Cloudy
3:00 AM 26.6 °F 20.0 °F -16.6 °F 14% 30.34 in 10.0 mi WNW 5.8 mph - N/A   Scattered Clouds
3:20 AM 26.6 °F 22.6 °F -16.6 °F 14% 30.34 in 10.0 mi West 3.5 mph - N/A   Partly Cloudy
3:40 AM 30.2 °F 23.4 °F -16.6 °F 13% 30.34 in 10.0 mi NW 6.9 mph - N/A   Partly Cloudy
4:00 AM 26.6 °F 19.1 °F -18.4 °F 13% 30.33 in 10.0 mi NW 6.9 mph - N/A   Partly Cloudy
4:20 AM 26.6 °F 20.0 °F -18.4 °F 13% 30.33 in 10.0 mi North 5.8 mph - N/A   Partly Cloudy
4:40 AM 24.8 °F 20.5 °F -18.4 °F 14% 30.33 in 10.0 mi NNW 3.5 mph - N/A   Clear
5:00 AM 26.6 °F 20.0 °F -18.4 °F 13% 30.33 in 10.0 mi North 5.8 mph - N/A   Clear
5:20 AM 26.6 °F 21.2 °F -18.4 °F 13% 30.33 in 10.0 mi North 4.6 mph - N/A   Clear
5:40 AM 26.6 °F 20.0 °F -18.4 °F 13% 30.33 in 10.0 mi NNW 5.8 mph - N/A   Clear
6:00 AM 26.6 °F 19.1 °F -18.4 °F 13% 30.33 in 9.0 mi North 6.9 mph - N/A   Clear
6:20 AM 26.6 °F 19.1 °F -18.4 °F 13% 30.33 in 9.0 mi North 6.9 mph - N/A   Partly Cloudy
6:40 AM 26.6 °F 18.2 °F -16.6 °F 14% 30.33 in 10.0 mi North 8.1 mph - N/A   Clear
7:00 AM 26.6 °F 20.0 °F -16.6 °F 14% 30.33 in 10.0 mi NNW 5.8 mph - N/A   Clear
7:20 AM 26.6 °F 21.2 °F -16.6 °F 14% 30.33 in 9.0 mi North 4.6 mph - N/A   Clear
7:40 AM 28.4 °F 23.3 °F -16.6 °F 13% 30.34 in 7.0 mi North 4.6 mph - N/A   Clear
8:00 AM 33.8 °F 28.6 °F -16.6 °F 11% 30.34 in 9.0 mi North 5.8 mph - N/A   Unknown
8:20 AM 37.4 °F - -14.8 °F 10% 30.34 in 6.0 mi Calm Calm - N/A   Haze
8:40 AM 41.0 °F - -14.8 °F 9% 30.35 in 9.0 mi Calm Calm - N/A   Clear
9:00 AM 42.8 °F - -14.8 °F 8% 30.35 in 10.0 mi Calm Calm - N/A   Clear
9:20 AM 42.8 °F - -14.8 °F 8% 30.35 in 10.0 mi Calm Calm - N/A   Clear
10:00 AM 46.4 °F - -13.0 °F 8% 30.35 in 10.0 mi Calm Calm - N/A   Clear
10:20 AM 48.2 °F - -13.0 °F 7% 30.34 in 10.0 mi ENE 3.5 mph - N/A   Clear
10:40 AM 50.0 °F - -13.0 °F 7% 30.34 in 10.0 mi East 6.9 mph - N/A   Clear
11:00 AM 50.0 °F - -13.0 °F 7% 30.33 in 10.0 mi East 6.9 mph - N/A   Clear
11:20 AM 51.8 °F - -13.0 °F 7% 30.32 in 10.0 mi East 5.8 mph - N/A   Clear
11:40 AM 51.8 °F - -13.0 °F 7% 30.32 in 10.0 mi Variable 5.8 mph 11.5 mph N/A   Clear
12:00 PM 53.6 °F - -13.0 °F 6% 30.31 in 10.0 mi NE 9.2 mph - N/A   Clear
12:20 PM 53.6 °F - -13.0 °F 6% 30.30 in 10.0 mi NE 9.2 mph - N/A   Clear
12:40 PM 53.6 °F - -13.0 °F 6% 30.28 in 10.0 mi ENE 8.1 mph - N/A   Clear
1:00 PM 55.4 °F - -13.0 °F 6% 30.27 in 10.0 mi ENE 10.4 mph 16.1 mph N/A   Clear
1:20 PM 55.4 °F - -13.0 °F 6% 30.26 in 10.0 mi ENE 6.9 mph - N/A   Clear
1:40 PM 57.2 °F - -13.0 °F 5% 30.25 in 10.0 mi East 10.4 mph - N/A   Clear
2:00 PM 57.2 °F - -13.0 °F 5% 30.24 in 10.0 mi ENE 10.4 mph - N/A   Clear
2:20 PM 57.2 °F - -13.0 °F 5% 30.24 in 10.0 mi ENE 9.2 mph - N/A   Clear
2:40 PM 57.2 °F - -13.0 °F 5% 30.23 in 10.0 mi ENE 3.5 mph - N/A   Clear
3:00 PM 57.2 °F - -13.0 °F 5% 30.23 in 10.0 mi ENE 5.8 mph - N/A   Clear
3:20 PM 59.0 °F - -13.0 °F 5% 30.22 in 10.0 mi Variable 6.9 mph - N/A   Clear
3:40 PM 59.0 °F - -13.0 °F 5% 30.22 in 10.0 mi East 8.1 mph - N/A   Clear
4:00 PM 59.0 °F - -13.0 °F 5% 30.21 in 10.0 mi ESE 5.8 mph - N/A   Clear
4:40 PM 59.0 °F - -13.0 °F 5% 30.21 in 10.0 mi Calm Calm - N/A   Clear
5:00 PM 59.0 °F - -13.0 °F 5% 30.20 in 10.0 mi Calm Calm - N/A   Clear
5:40 PM 57.2 °F - -13.0 °F 5% 30.20 in 10.0 mi SE 3.5 mph - N/A   Clear
6:00 PM 55.4 °F - -13.0 °F 6% 30.19 in 10.0 mi SSE 4.6 mph - N/A   Clear
6:20 PM 53.6 °F - -13.0 °F 6% 30.19 in 10.0 mi Calm Calm - N/A   Clear
6:40 PM 44.6 °F 41.4 °F -16.6 °F 7% 30.20 in 10.0 mi WNW 5.8 mph - N/A   Clear
7:00 PM 42.8 °F 38.0 °F -16.6 °F 8% 30.20 in 10.0 mi NW 8.1 mph - N/A   Clear
7:20 PM 41.0 °F 35.8 °F -16.6 °F 8% 30.21 in 10.0 mi NW 8.1 mph - N/A   Clear
7:40 PM 39.2 °F 33.0 °F -16.6 °F 9% 30.21 in 10.0 mi NNW 9.2 mph - N/A   Clear
8:00 PM 39.2 °F 32.5 °F -16.6 °F 9% 30.21 in 10.0 mi NNW 10.4 mph - N/A   Clear
8:20 PM 41.0 °F 34.7 °F -16.6 °F 8% 30.21 in 10.0 mi NNW 10.4 mph - N/A   Partly Cloudy
8:40 PM 41.0 °F 34.7 °F -16.6 °F 8% 30.21 in 10.0 mi NNW 10.4 mph - N/A   Partly Cloudy
9:00 PM 39.2 °F - -16.6 °F 9% 30.22 in 10.0 mi Calm Calm - N/A   Clear
9:20 PM 37.4 °F 33.8 °F -16.6 °F 9% 30.22 in 10.0 mi NNW 4.6 mph - N/A   Partly Cloudy
9:40 PM 37.4 °F - -18.4 °F 9% 30.22 in 10.0 mi Calm Calm - N/A   Clear
10:00 PM 37.4 °F 32.8 °F -18.4 °F 9% 30.23 in 10.0 mi North 5.8 mph - N/A   Clear
10:20 PM 37.4 °F 31.4 °F -18.4 °F 9% 30.23 in 10.0 mi North 8.1 mph - N/A   Partly Cloudy
10:40 PM 37.4 °F 30.8 °F -18.4 °F 9% 30.23 in 10.0 mi NNW 9.2 mph - N/A   Partly Cloudy
11:00 PM 39.2 °F 32.5 °F -18.4 °F 8% 30.23 in 10.0 mi North 10.4 mph - N/A   Scattered Clouds
11:20 PM 39.2 °F 32.5 °F -18.4 °F 8% 30.23 in 10.0 mi North 10.4 mph - N/A   Partly Cloudy
11:40 PM 39.2 °F 34.2 °F -18.4 °F 8% 30.23 in 10.0 mi North 6.9 mph - N/A   Partly Cloudy